| time (UTC) | temp F | wind direction | speed MPH | gust MPH | rain 1hr in | rain 24hr in | rain mn in | humidity % | barometer mb |
| 20260901000745 | 76 | 179 | 0.0 | 5.0 | 0.00 | 0.00 | 0.00 | 35 | 971.1 |
| 20260901000248 | 76 | 173 | 0.0 | 2.0 | 0.00 | 0.00 | 0.00 | 32 | 971.1 |
| 20260831235720 | 0 | 0.0 | 0.0 | 0.00 | 0.00 | 0.00 | |||
| 20260831140611 | 57 | 210 | 0.0 | 6.0 | 0.00 | 0.21 | 0.00 | 65 | 974.4 |
| 20260831140110 | 57 | 230 | 0.0 | 5.0 | 0.00 | 0.21 | 0.00 | 65 | 974.4 |
| 20260831135609 | 56 | 257 | 0.0 | 2.0 | 0.00 | 0.21 | 0.00 | 65 | 974.4 |
| 20260831135116 | 56 | 250 | 0.0 | 4.0 | 0.00 | 0.21 | 0.00 | 65 | 974.2 |
| 20260831135107 | 56 | 266 | 0.0 | 4.0 | 0.00 | 0.21 | 0.00 | 65 | 974.3 |
| 20260831134116 | 56 | 200 | 0.0 | 2.0 | 0.00 | 0.21 | 0.00 | 67 | 974.3 |
| 20260831134109 | 56 | 200 | 1.0 | 3.0 | 0.00 | 0.21 | 0.00 | 66 | 974.2 |
| 20260831133109 | 56 | 200 | 0.0 | 0.0 | 0.00 | 0.21 | 0.00 | 66 | 974.2 |
| 20260831132609 | 56 | 200 | 0.0 | 2.0 | 0.00 | 0.21 | 0.00 | 66 | 974.2 |
| 20260831132115 | 56 | 250 | 1.0 | 7.0 | 0.00 | 0.21 | 0.00 | 67 | 974.0 |
| 20260831132109 | 56 | 254 | 0.0 | 7.0 | 0.00 | 0.21 | 0.00 | 66 | 974.1 |
| 20260831131107 | 56 | 220 | 0.0 | 5.0 | 0.00 | 0.21 | 0.00 | 67 | 974.0 |
| 20260831130607 | 56 | 212 | 1.0 | 5.0 | 0.00 | 0.21 | 0.00 | 67 | 974.0 |
| 20260831130107 | 55 | 244 | 0.0 | 4.0 | 0.00 | 0.21 | 0.00 | 68 | 974.0 |
| 20260831125609 | 55 | 247 | 0.0 | 5.0 | 0.00 | 0.21 | 0.00 | 68 | 974.0 |
| 20260831125114 | 55 | 247 | 0.0 | 7.0 | 0.00 | 0.21 | 0.00 | 69 | 973.8 |
| 20260831125107 | 55 | 233 | 0.0 | 5.0 | 0.00 | 0.21 | 0.00 | 68 | 973.9 |
| 20260831124106 | 55 | 240 | 1.0 | 7.0 | 0.00 | 0.21 | 0.00 | 69 | 973.9 |
| 20260831123609 | 55 | 288 | 1.0 | 5.0 | 0.00 | 0.21 | 0.00 | 69 | 973.8 |
| 20260831123106 | 55 | 224 | 0.0 | 2.0 | 0.00 | 0.21 | 0.00 | 70 | 973.8 |
| 20260831122607 | 54 | 230 | 0.0 | 4.0 | 0.00 | 0.21 | 0.00 | 70 | 973.8 |
| 20260831122106 | 54 | 228 | 0.0 | 5.0 | 0.00 | 0.21 | 0.00 | 70 | 973.8 |
| 20260831121607 | 54 | 231 | 1.0 | 5.0 | 0.00 | 0.21 | 0.00 | 70 | 973.7 |
| 20260831121113 | 54 | 243 | 0.0 | 1.0 | 0.00 | 0.21 | 0.00 | 70 | 973.7 |
| 20260831121106 | 54 | 257 | 0.0 | 2.0 | 0.00 | 0.21 | 0.00 | 71 | 973.7 |
| 20260831120106 | 54 | 243 | 0.0 | 2.0 | 0.00 | 0.21 | 0.00 | 71 | 973.6 |
| 20260831115607 | 54 | 243 | 0.0 | 3.0 | 0.00 | 0.21 | 0.00 | 71 | 973.6 |
| 20260831115105 | 54 | 247 | 0.0 | 3.0 | 0.00 | 0.21 | 0.00 | 71 | 973.6 |
| 20260831114614 | 53 | 245 | 2.0 | 9.0 | 0.00 | 0.21 | 0.00 | 71 | 973.4 |
| 20260831114606 | 54 | 248 | 0.0 | 9.0 | 0.00 | 0.21 | 0.00 | 71 | 973.5 |
| 20260831113606 | 53 | 271 | 1.0 | 4.0 | 0.00 | 0.21 | 0.00 | 71 | 973.4 |
| 20260831113106 | 53 | 261 | 0.0 | 4.0 | 0.00 | 0.21 | 0.00 | 71 | 973.4 |
| 20260831112615 | 53 | 265 | 3.0 | 7.0 | 0.00 | 0.21 | 0.00 | 71 | 973.2 |
| 20260831112607 | 53 | 250 | 0.0 | 7.0 | 0.00 | 0.21 | 0.00 | 71 | 973.3 |
| 20260831111605 | 53 | 264 | 0.0 | 5.0 | 0.00 | 0.21 | 0.00 | 71 | 973.3 |
| 20260831111104 | 53 | 271 | 1.0 | 5.0 | 0.00 | 0.21 | 0.00 | 71 | 973.2 |
| 20260831110604 | 53 | 286 | 0.0 | 5.0 | 0.00 | 0.21 | 0.00 | 71 | 973.1 |
| 20260831110103 | 53 | 248 | 1.0 | 5.0 | 0.00 | 0.21 | 0.00 | 71 | 973.0 |
| 20260831105606 | 53 | 221 | 0.0 | 5.0 | 0.00 | 0.21 | 0.00 | 71 | 973.0 |
| 20260831105105 | 53 | 192 | 0.0 | 5.0 | 0.00 | 0.21 | 0.00 | 71 | 973.0 |
| 20260831104605 | 53 | 190 | 0.0 | 5.0 | 0.00 | 0.21 | 0.00 | 71 | 972.9 |
| 20260831104104 | 53 | 202 | 0.0 | 9.0 | 0.00 | 0.21 | 0.00 | 71 | 973.0 |
| 20260831103612 | 53 | 206 | 1.0 | 7.0 | 0.00 | 0.21 | 0.00 | 70 | 972.8 |
| 20260831103604 | 53 | 226 | 1.0 | 9.0 | 0.00 | 0.21 | 0.00 | 71 | 972.9 |
| 20260831102612 | 54 | 271 | 0.0 | 9.0 | 0.00 | 0.21 | 0.00 | 70 | 972.5 |
| 20260831102604 | 54 | 259 | 2.0 | 7.0 | 0.00 | 0.21 | 0.00 | 70 | 972.8 |
| 20260831101603 | 54 | 252 | 2.0 | 9.0 | 0.00 | 0.21 | 0.00 | 70 | 972.5 |
| 20260831101102 | 54 | 216 | 1.0 | 12.0 | 0.00 | 0.21 | 0.00 | 70 | 972.4 |
| 20260831100605 | 54 | 271 | 4.0 | 12.0 | 0.00 | 0.21 | 0.00 | 70 | 972.3 |
| 20260831095605 | 54 | 278 | 3.0 | 11.0 | 0.00 | 0.21 | 0.00 | 71 | 972.2 |
| 20260831095102 | 54 | 265 | 2.0 | 13.0 | 0.00 | 0.21 | 0.00 | 71 | 972.2 |
| 20260831094613 | 53 | 300 | 4.0 | 11.0 | 0.00 | 0.21 | 0.00 | 71 | 972.0 |
| 20260831094604 | 53 | 269 | 3.0 | 13.0 | 0.00 | 0.21 | 0.00 | 71 | 972.0 |
| 20260831093603 | 53 | 248 | 4.0 | 11.0 | 0.00 | 0.21 | 0.00 | 72 | 972.0 |
| 20260831093110 | 53 | 251 | 3.0 | 9.0 | 0.00 | 0.21 | 0.00 | 72 | 972.0 |
| 20260831093102 | 53 | 268 | 6.0 | 10.0 | 0.00 | 0.21 | 0.00 | 72 | 972.1 |
| 20260831092729 | 53 | 278 | 4.0 | 11.0 | 0.00 | 0.21 | 0.00 | 72 | 972.1 |
| 20260831091603 | 53 | 262 | 4.0 | 11.0 | 0.00 | 0.21 | 0.00 | 72 | 972.1 |
| 20260831091108 | 53 | 265 | 3.0 | 7.0 | 0.00 | 0.21 | 0.00 | 72 | 972.0 |
| 20260831091101 | 53 | 271 | 4.0 | 9.0 | 0.00 | 0.21 | 0.00 | 72 | 972.1 |
| 20260831090100 | 53 | 289 | 5.0 | 9.0 | 0.00 | 0.21 | 0.00 | 72 | 972.1 |
| 20260831085602 | 53 | 248 | 3.0 | 9.0 | 0.00 | 0.21 | 0.00 | 72 | 972.0 |
| 20260831085109 | 53 | 278 | 4.0 | 10.0 | 0.00 | 0.21 | 0.00 | 72 | 971.9 |
| 20260831085101 | 53 | 269 | 5.0 | 10.0 | 0.00 | 0.21 | 0.00 | 72 | 971.9 |
| 20260831084108 | 53 | 247 | 3.0 | 9.0 | 0.00 | 0.21 | 0.00 | 72 | 971.9 |
| 20260831084100 | 53 | 272 | 5.0 | 9.0 | 0.00 | 0.21 | 0.00 | 72 | 971.8 |
| 20260831083100 | 53 | 285 | 1.0 | 9.0 | 0.00 | 0.21 | 0.00 | 72 | 971.7 |
| 20260831082602 | 53 | 274 | 3.0 | 7.0 | 0.00 | 0.21 | 0.00 | 72 | 971.7 |
| 20260831082100 | 53 | 306 | 4.0 | 10.0 | 0.00 | 0.21 | 0.00 | 72 | 971.7 |
| 20260831081600 | 53 | 264 | 3.0 | 10.0 | 0.00 | 0.21 | 0.00 | 72 | 971.5 |
| 20260831081100 | 53 | 282 | 2.0 | 7.0 | 0.00 | 0.21 | 0.00 | 72 | 971.5 |
| 20260831080602 | 53 | 252 | 3.0 | 7.0 | 0.00 | 0.21 | 0.00 | 72 | 971.5 |
| 20260831080100 | 53 | 254 | 3.0 | 6.0 | 0.00 | 0.21 | 0.00 | 72 | 971.4 |
| 20260831075608 | 53 | 251 | 2.0 | 7.0 | 0.00 | 0.21 | 0.00 | 73 | 971.4 |
| 20260831075601 | 53 | 251 | 3.0 | 7.0 | 0.00 | 0.21 | 0.00 | 73 | 971.5 |
| 20260831074609 | 53 | 247 | 2.0 | 6.0 | 0.00 | 0.21 | 0.00 | 72 | 971.4 |
| 20260831074600 | 53 | 248 | 2.0 | 5.0 | 0.00 | 0.21 | 0.00 | 73 | 971.4 |
| 20260831073601 | 53 | 237 | 3.0 | 7.0 | 0.00 | 0.21 | 0.00 | 72 | 971.4 |
| 20260831073058 | 54 | 223 | 4.0 | 7.0 | 0.00 | 0.21 | 0.00 | 72 | 971.4 |
| 20260831072601 | 54 | 223 | 2.0 | 7.0 | 0.00 | 0.21 | 0.00 | 72 | 971.4 |
| 20260831072058 | 54 | 219 | 2.0 | 7.0 | 0.00 | 0.21 | 0.00 | 72 | 971.4 |
| 20260831071601 | 54 | 292 | 4.0 | 9.0 | 0.00 | 0.21 | 0.00 | 72 | 971.3 |
| 20260831071105 | 54 | 241 | 3.0 | 9.0 | 0.00 | 0.21 | 0.00 | 71 | 971.3 |
| 20260831071058 | 54 | 254 | 3.0 | 9.0 | 0.00 | 0.21 | 0.00 | 71 | 971.3 |
| 20260831070726 | 55 | 244 | 2.0 | 10.0 | 0.00 | 0.21 | 0.00 | 71 | 971.3 |
| 20260831065607 | 55 | 275 | 7.0 | 12.0 | 0.00 | 0.21 | 0.00 | 70 | 971.2 |
| 20260831065559 | 55 | 252 | 4.0 | 12.0 | 0.00 | 0.21 | 0.00 | 70 | 971.2 |
| 20260831065223 | 55 | 289 | 5.0 | 10.0 | 0.00 | 0.21 | 0.00 | 69 | 971.4 |
| 20260831064725 | 56 | 254 | 3.0 | 11.0 | 0.00 | 0.21 | 0.00 | 69 | 971.3 |
| 20260831063558 | 56 | 244 | 4.0 | 11.0 | 0.00 | 0.21 | 0.00 | 68 | 971.4 |
| 20260831063058 | 56 | 251 | 3.0 | 7.0 | 0.00 | 0.21 | 0.00 | 68 | 971.3 |
| 20260831062558 | 56 | 262 | 3.0 | 7.0 | 0.00 | 0.21 | 0.00 | 68 | 971.4 |
| 20260831062057 | 56 | 254 | 3.0 | 10.0 | 0.00 | 0.21 | 0.00 | 67 | 971.3 |
| 20260831061558 | 56 | 234 | 5.0 | 16.0 | 0.00 | 0.21 | 0.00 | 67 | 971.3 |
| 20260831061056 | 57 | 234 | 6.0 | 16.0 | 0.00 | 0.21 | 0.00 | 67 | 971.3 |
| 20260831060558 | 57 | 210 | 5.0 | 16.0 | 0.00 | 0.21 | 0.00 | 67 | 971.4 |
| 20260831060056 | 56 | 298 | 8.0 | 16.0 | 0.00 | 0.21 | 0.00 | 67 | 971.4 |
| 20260831055558 | 56 | 293 | 6.0 | 15.0 | 0.00 | 0.21 | 0.21 | 68 | 971.4 |
| 20260831055057 | 56 | 264 | 4.0 | 14.0 | 0.00 | 0.21 | 0.21 | 69 | 971.4 |
| 20260831054559 | 56 | 245 | 4.0 | 7.0 | 0.00 | 0.21 | 0.21 | 70 | 971.4 |
| 20260831054056 | 56 | 247 | 3.0 | 14.0 | 0.00 | 0.21 | 0.21 | 70 | 971.5 |
| 20260831053606 | 56 | 286 | 6.0 | 15.0 | 0.00 | 0.21 | 0.21 | 69 | 971.7 |
| 20260831053557 | 56 | 265 | 6.0 | 14.0 | 0.00 | 0.21 | 0.21 | 70 | 971.6 |
| 20260831052604 | 56 | 241 | 5.0 | 14.0 | 0.00 | 0.21 | 0.21 | 71 | 971.4 |
| 20260831052557 | 56 | 307 | 6.0 | 15.0 | 0.00 | 0.21 | 0.21 | 70 | 971.5 |
| 20260831051604 | 55 | 254 | 5.0 | 7.0 | 0.00 | 0.21 | 0.21 | 74 | 971.4 |
| 20260831051557 | 55 | 264 | 8.0 | 14.0 | 0.00 | 0.21 | 0.21 | 72 | 971.3 |
| 20260831050557 | 55 | 247 | 2.0 | 9.0 | 0.00 | 0.21 | 0.21 | 76 | 971.5 |
| 20260831050055 | 55 | 245 | 2.0 | 13.0 | 0.00 | 0.21 | 0.21 | 76 | 971.7 |
| 20260831045556 | 55 | 230 | 4.0 | 13.0 | 0.00 | 0.21 | 0.21 | 77 | 971.7 |
| 20260831045102 | 54 | 255 | 5.0 | 11.0 | 0.00 | 0.21 | 0.21 | 78 | 971.9 |
| 20260831045054 | 55 | 274 | 4.0 | 11.0 | 0.00 | 0.21 | 0.21 | 77 | 971.9 |
| 20260831044053 | 54 | 268 | 2.0 | 13.0 | 0.00 | 0.21 | 0.21 | 78 | 971.8 |
| 20260831043558 | 54 | 307 | 9.0 | 13.0 | 0.00 | 0.21 | 0.21 | 79 | 971.8 |
| 20260831043054 | 54 | 306 | 6.0 | 11.0 | 0.00 | 0.21 | 0.21 | 80 | 971.7 |
| 20260831042554 | 54 | 264 | 2.0 | 10.0 | 0.00 | 0.21 | 0.21 | 80 | 971.5 |
| 20260831042102 | 54 | 266 | 5.0 | 10.0 | 0.00 | 0.21 | 0.21 | 80 | 971.4 |
| 20260831042054 | 54 | 245 | 4.0 | 10.0 | 0.00 | 0.21 | 0.21 | 80 | 971.5 |
| 20260831041054 | 54 | 319 | 5.0 | 11.0 | 0.00 | 0.21 | 0.21 | 80 | 971.5 |
| 20260831040554 | 54 | 300 | 6.0 | 11.0 | 0.01 | 0.21 | 0.21 | 80 | 971.4 |
| 20260831040054 | 54 | 310 | 4.0 | 15.0 | 0.01 | 0.21 | 0.21 | 80 | 971.3 |
| 20260831035555 | 54 | 254 | 6.0 | 18.0 | 0.04 | 0.21 | 0.21 | 80 | 971.2 |
| 20260831035100 | 54 | 283 | 8.0 | 19.0 | 0.06 | 0.21 | 0.21 | 80 | 971.1 |
| 20260831035054 | 54 | 302 | 9.0 | 18.0 | 0.06 | 0.21 | 0.21 | 80 | 971.2 |
| 20260831034052 | 54 | 321 | 7.0 | 22.0 | 0.06 | 0.21 | 0.21 | 81 | 971.1 |
| 20260831033602 | 53 | 282 | 12.0 | 20.0 | 0.06 | 0.21 | 0.21 | 81 | 971.0 |
| 20260831033554 | 54 | 320 | 11.0 | 22.0 | 0.06 | 0.21 | 0.21 | 81 | 971.1 |
| 20260831033217 | 53 | 269 | 5.0 | 12.0 | 0.06 | 0.21 | 0.21 | 82 | 970.9 |
| 20260831032059 | 53 | 259 | 5.0 | 10.0 | 0.06 | 0.21 | 0.21 | 82 | 971.2 |
| 20260831032052 | 53 | 247 | 5.0 | 12.0 | 0.06 | 0.21 | 0.21 | 82 | 971.1 |
| 20260831031053 | 53 | 298 | 4.0 | 11.0 | 0.06 | 0.21 | 0.21 | 82 | 971.1 |
| 20260831030554 | 53 | 203 | 5.0 | 15.0 | 0.05 | 0.20 | 0.20 | 83 | 971.1 |
| 20260831030053 | 53 | 289 | 6.0 | 15.0 | 0.05 | 0.20 | 0.20 | 82 | 971.0 |
| 20260831025600 | 53 | 316 | 5.0 | 12.0 | 0.01 | 0.15 | 0.15 | 80 | 970.9 |
| 20260831025553 | 53 | 300 | 7.0 | 12.0 | 0.02 | 0.17 | 0.18 | 81 | 971.1 |
| 20260831024600 | 53 | 240 | 4.0 | 17.0 | 0.04 | 0.15 | 0.15 | 80 | 970.6 |
| 20260831024553 | 53 | 292 | 4.0 | 16.0 | 0.02 | 0.15 | 0.15 | 80 | 970.6 |
| 20260831023553 | 53 | 264 | 10.0 | 17.0 | 0.06 | 0.15 | 0.15 | 79 | 970.6 |
| 20260831023052 | 53 | 298 | 8.0 | 15.0 | 0.06 | 0.15 | 0.15 | 80 | 970.3 |
| 20260831022552 | 53 | 279 | 6.0 | 14.0 | 0.07 | 0.15 | 0.15 | 80 | 969.9 |
| 20260831022058 | 53 | 210 | 6.0 | 17.0 | 0.07 | 0.15 | 0.15 | 80 | 969.6 |
| 20260831022051 | 53 | 290 | 6.0 | 14.0 | 0.07 | 0.15 | 0.15 | 79 | 969.7 |
| 20260831021050 | 53 | 302 | 9.0 | 23.0 | 0.08 | 0.15 | 0.15 | 80 | 970.1 |
| 20260831020558 | 53 | 302 | 10.0 | 18.0 | 0.09 | 0.15 | 0.15 | 82 | 970.4 |
| 20260831020551 | 53 | 266 | 9.0 | 23.0 | 0.08 | 0.15 | 0.15 | 81 | 970.4 |
| 20260831020215 | 53 | 310 | 7.0 | 18.0 | 0.10 | 0.15 | 0.15 | 81 | 969.9 |
| 20260831015058 | 53 | 272 | 9.0 | 19.0 | 0.10 | 0.13 | 0.13 | 82 | 970.7 |
| 20260831015050 | 53 | 234 | 9.0 | 19.0 | 0.10 | 0.14 | 0.14 | 82 | 970.1 |
| 20260831014050 | 53 | 276 | 11.0 | 16.0 | 0.09 | 0.11 | 0.11 | 82 | 971.1 |
| 20260831013551 | 54 | 290 | 9.0 | 14.0 | 0.07 | 0.09 | 0.09 | 83 | 970.7 |
| 20260831013049 | 54 | 247 | 5.0 | 18.0 | 0.07 | 0.09 | 0.09 | 82 | 970.6 |
| 20260831012551 | 54 | 255 | 9.0 | 18.0 | 0.07 | 0.08 | 0.08 | 82 | 970.0 |
| 20260831012058 | 54 | 275 | 6.0 | 13.0 | 0.07 | 0.08 | 0.08 | 80 | 969.9 |
| 20260831012050 | 54 | 264 | 7.0 | 13.0 | 0.07 | 0.08 | 0.08 | 82 | 969.8 |
| 20260831011049 | 54 | 214 | 4.0 | 16.0 | 0.06 | 0.07 | 0.07 | 79 | 969.6 |
| 20260831010550 | 55 | 268 | 7.0 | 16.0 | 0.06 | 0.07 | 0.07 | 79 | 969.5 |
| 20260831010050 | 55 | 203 | 6.0 | 16.0 | 0.05 | 0.06 | 0.06 | 78 | 969.8 |
| 20260831005550 | 56 | 286 | 3.0 | 16.0 | 0.04 | 0.05 | 0.05 | 77 | 970.9 |
| 20260831005056 | 56 | 290 | 1.0 | 10.0 | 0.02 | 0.03 | 0.03 | 75 | 970.2 |
| 20260831005048 | 56 | 319 | 8.0 | 13.0 | 0.03 | 0.04 | 0.04 | 76 | 970.6 |
| 20260831004048 | 57 | 295 | 1.0 | 14.0 | 0.01 | 0.02 | 0.02 | 74 | 970.0 |
| 20260831003558 | 58 | 295 | 8.0 | 22.0 | 0.01 | 0.02 | 0.02 | 70 | 969.9 |
| 20260831003551 | 57 | 313 | 5.0 | 22.0 | 0.01 | 0.02 | 0.02 | 72 | 970.0 |
| 20260831002550 | 58 | 302 | 14.0 | 34.0 | 0.00 | 0.01 | 0.01 | 67 | 969.9 |
| 20260831002048 | 59 | 257 | 17.0 | 34.0 | 0.00 | 0.01 | 0.01 | 63 | 969.4 |
| 20260831001549 | 59 | 303 | 12.0 | 19.0 | 0.00 | 0.01 | 0.01 | 59 | 969.0 |
| 20260831001055 | 59 | 264 | 10.0 | 22.0 | 0.00 | 0.01 | 0.01 | 60 | 969.0 |
| 20260831001048 | 59 | 266 | 8.0 | 22.0 | 0.00 | 0.01 | 0.01 | 59 | 968.9 |